Tracking 28766 objects as of 14-Apr-2024
HD Live streaming from Space Station
objects crossing your sky now

ONEWEB-0101

Track ONEWEB-0101 now!
10-day predictions
ONEWEB-0101 is classified as:


NORAD ID: 48049
Int'l Code: 2021-025H
Perigee: 1,215.4 km
Apogee: 1,218.4 km
Inclination: 87.9 °
Period: 109.6 minutes
Semi major axis: 7587 km
RCS: Unknown
Launch date: March 25, 2021
Source: United States (US)
Launch site: VOSTOCHNY COSMODROME (VOSTO)
Your satellite tracking list
Your tracking list is empty




NASA's NSSDC Master Catalog

Two Line Element Set (TLE):
1 48049U 21025H   24104.53517514 -.00000228  00000-0 -65813-3 0  9997
2 48049  87.8895 118.4231 0001962  95.9264 264.2088 13.13468726149189
Source of the keplerian elements: AFSPC